Погода в Неси

Россия / Ненецкий автономный округ     66°36′03″N   44°40′44″E
В апреле 2022 года жителям России запретили посещать сайт meteo.paraplan.net по решению Генеральной прокуратуры. Аудитория сайта уменьшилась в 10 раз. Владельцы сайта не видят смысла в поддержке погодного сервера в таких условиях. Сайт будет закрыт в октябре.
темп.,
°C
ветер,
м/с
пор.,
м/с
влажн.,
%
обл.,
%
осадки,
мм/ч
давл.,
гПа
погр.,
м
6 октября, чт
чт600:00+8ююз3484100 0.0 101266
03:00+7ю3590100 0.1 101197
06:00+7ю4691100 0.1 1010137
09:00+7ю5990100 0.1 1008249
12:00+9ю71184100 0.0 1007517
15:00+9ю8148876 0.1 1004511
18:00+7ююв9169199 0.0 1001464
21:00+7ююв111887100 0.1 996653
7 октября, пт
пт700:00+8ю111888100 2.8 993836
03:00+8ю91591100 3.5 990653
06:00+8ю71394100 0.5 988543
09:00+7з91294100 2.4 988501
12:00+7з91293100 0.4 990846
15:00+7зсз81288100 2.9 992580
18:00+7з71183100 0.1 994411
21:00+7з71084100 0.1 996301
8 октября, сб
сб800:00+7з71188100 0.0 998297
03:00+6з7119187 0.0 999275
06:00+5зюз711914 0.0 1001244
09:00+6зюз7119368 0.0 1001427
12:00+8юз810787 0.0 1001512
15:00+8ююз81184100 0.0 1000494
18:00+7ю81494100 0.3 998449
21:00+8ююз81395100 1.1 997402
9 октября, вс
вс900:00+9ююз101587100 0.5 995700
03:00+8ююз101790100 1.4 994731
06:00+8юз9159053 0.5 994437
09:00+8юз91484100 0.6 994669
12:00+8зюз10137462 0.6 9941168
15:00+8юз10157441 0.8 9951192
18:00+6зюз111488100 0.6 996968
21:00+7зюз111586100 0.9 997775
10 октября, пн
пн1000:00+6зюз11168937 0.1 998535
03:00+5зюз914895 0.1 999391
06:00+5зюз101589100 0.0 1000493
09:00+6з91283100 0.1 1001781
12:00+6з9117865 0.1 1002997
15:00+6з81072100 0.1 1004964
18:00+5зюз610875 0.0 1006288
21:00+4юз7128712 0.0 1006277